Location: PSU-Greenbush Astrophysical Observatory
(37.5140°N, 94.9880°W)
Time: 12:00:57
(UTC-06:00)

Altair - Pass Details

Date: 27 January 2020
Orbit: 1502 x 1682 km, 47.2° (Epoch: 22 February)

Event Time Altitude Azimuth Distance (km) Brightness Sun altitude
Rises 17:13:42 0° 288° (WNW) 4,905 10.9 3.6°
Reaches altitude 10° 17:19:10 10° 265° (W) 3,882 11.2 2.6°
Maximum altitude 17:23:19 13° 239° (WSW) 3,581 11.6 1.8°
Drops below altitude 10° 17:27:25 10° 213° (SSW) 3,817 10.7 1.1°
Sets 17:32:46 0° 189° (S) 4,755 10.6 0.1°
